Total_Precipitation_Accumulation
2.19 2.31 2.34 2.33 2.41 2.40 2.53 2.74 3.00 2.92 2.62 2.42 2.29 2.25 2.30 2.40 2.70 2.44 2.31 2.29 2.05 1.92 1.90 1.94 2.02 2.08 2.27 2.53 2.69 2.74 2.70 2.73 2.78 2.82 2.86 2.98 3.16 3.28
2.00 2.07 2.07 2.06 2.28 2.38 2.43 2.57 2.83 3.01 2.93 2.55 2.32 2.15 2.22 2.20 2.56 2.41 2.40 2.51 2.20 1.94 1.87 1.95 2.01 2.00 2.06 2.14 2.29 2.42 2.50 2.53 2.51 2.52 2.62 2.70 2.79 2.99
1.84 1.81 1.82 1.96 2.10 2.13 2.24 2.37 2.62 2.92 3.05 2.76 2.45 2.29 2.35 2.41 2.47 2.43 2.30 2.19 2.07 2.07 1.92 1.90 2.09 2.28 2.15 1.98 1.95 2.00 2.15 2.28 2.36 2.36 2.42 2.53 2.59 2.69
1.64 1.66 1.54 1.64 1.85 1.96 2.10 2.18 2.35 2.58 2.75 2.71 2.49 2.41 2.37 2.38 2.51 2.48 2.25 1.99 1.87 2.02 1.92 1.87 2.03 2.40 2.45 2.16 1.99 1.87 1.83 1.88 1.98 2.10 2.18 2.26 2.37 2.52
1.53 1.54 1.53 1.67 1.77 1.92 2.04 2.10 2.25 2.32 2.57 2.56 2.39 2.39 2.42 2.39 2.51 2.39 2.17 2.14 1.72 1.73 1.79 1.83 1.92 2.49 2.90 2.65 2.31 2.09 1.85 1.70 1.64 1.76 1.89 2.01 2.05 2.13
1.47 1.49 1.51 1.60 1.71 1.93 1.99 2.13 2.29 2.43 2.58 2.60 2.49 2.46 2.51 2.54 2.59 2.58 2.39 2.18 1.88 1.52 1.64 1.74 1.92 2.37 2.95 3.11 2.70 2.41 2.15 1.91 1.71 1.61 1.64 1.67 1.68 1.70
1.46 1.42 1.37 1.41 1.54 1.69 1.76 2.03 2.31 2.50 2.56 2.61 2.56 2.51 2.49 2.59 2.44 2.31 2.29 2.18 1.92 1.68 1.73 1.62 1.85 2.47 3.10 3.43 3.19 2.59 2.16 1.96 1.81 1.65 1.56 1.50 1.47 1.47
1.50 1.46 1.28 1.25 1.30 1.36 1.44 1.56 1.89 2.19 2.38 2.51 2.49 2.42 2.35 2.37 2.33 2.22 2.26 2.30 2.12 1.73 1.77 1.84 2.08 2.89 3.43 3.66 3.57 2.73 2.06 1.84 1.77 1.70 1.62 1.53 1.42 1.36
1.49 1.54 1.35 1.19 1.30 1.32 1.32 1.30 1.44 1.70 2.04 2.33 2.41 2.24 2.28 2.33 2.42 2.37 2.28 2.29 2.20 1.87 1.87 1.96 2.25 2.90 3.29 3.67 3.64 2.88 2.25 1.91 1.84 1.79 1.69 1.59 1.49 1.39
1.40 1.42 1.49 1.44 1.28 1.29 1.37 1.46 1.57 1.67 1.77 1.86 2.10 2.19 2.22 2.22 2.22 2.21 2.28 2.32 2.17 1.88 1.92 2.16 2.24 2.64 3.03 3.54 3.49 2.83 2.33 2.03 1.88 1.79 1.68 1.54 1.44 1.40
1.21 1.17 1.22 1.26 1.19 1.22 1.41 1.67 1.83 1.98 1.80 1.78 1.88 2.07 2.13 1.99 1.87 2.00 2.27 2.40 2.21 1.88 1.78 2.04 2.18 2.38 2.74 3.08 2.95 2.61 2.25 2.03 1.84 1.69 1.60 1.54 1.46 1.43
1.15 1.12 1.14 1.14 1.13 1.21 1.42 1.79 2.00 2.07 1.87 1.74 1.87 2.03 1.97 1.90 1.90 2.01 2.26 2.32 2.19 2.07 1.77 1.92 2.04 2.19 2.58 2.67 2.45 2.19 2.09 2.09 1.92 1.76 1.64 1.53 1.45 1.36
1.05 1.11 1.14 1.13 1.07 1.17 1.40 1.67 1.90 1.95 1.89 1.87 1.93 2.00 2.02 2.04 1.95 1.96 2.07 2.10 2.13 2.05 1.68 1.89 2.09 2.18 2.41 2.48 2.36 2.20 1.99 1.96 1.92 1.97 1.92 1.69 1.52 1.43
1.08 1.08 1.11 1.13 1.11 1.23 1.34 1.62 1.91 2.06 1.95 1.83 1.79 1.81 1.80 1.81 1.78 1.71 1.73 1.75 1.80 1.85 1.77 1.91 2.20 2.33 2.30 2.20 2.28 2.19 2.11 2.05 1.95 1.98 2.06 1.95 1.74 1.68
0.94 1.07 1.06 1.02 1.17 1.43 1.59 1.76 1.98 2.14 2.04 1.81 1.71 1.62 1.58 1.59 1.56 1.60 1.60 1.59 1.53 1.46 1.38 1.60 1.97 2.19 2.25 2.17 2.15 2.12 2.27 2.42 2.26 2.18 2.09 1.95 1.82 1.70
0.78 0.99 1.14 1.20 1.36 1.66 1.89 2.00 2.07 2.04 1.88 1.72 1.62 1.56 1.51 1.50 1.53 1.51 1.58 1.58 1.61 1.54 1.40 1.44 1.70 1.99 2.12 2.03 2.07 2.12 2.23 2.64 2.61 2.36 2.21 2.13 1.98 1.83
0.75 0.96 1.15 1.26 1.47 1.71 1.84 1.87 1.87 1.83 1.77 1.65 1.55 1.50 1.50 1.49 1.49 1.48 1.52 1.49 1.53 1.50 1.53 1.55 1.64 1.77 1.83 1.90 2.03 2.04 2.18 2.39 2.43 2.26 2.20 2.26 2.20 2.00
0.80 1.05 1.24 1.35 1.53 1.66 1.77 1.74 1.66 1.64 1.62 1.59 1.55 1.47 1.44 1.45 1.50 1.48 1.44 1.42 1.45 1.40 1.37 1.41 1.47 1.55 1.66 1.77 1.89 1.96 1.97 2.11 2.16 2.10 1.98 2.07 2.22 2.12
0.85 1.10 1.31 1.43 1.55 1.59 1.62 1.59 1.55 1.50 1.43 1.44 1.43 1.40 1.38 1.39 1.42 1.41 1.36 1.34 1.35 1.31 1.24 1.29 1.34 1.42 1.55 1.79 1.86 1.86 1.84 1.88 1.95 1.93 1.86 1.88 2.06 2.12
0.91 1.11 1.31 1.39 1.44 1.49 1.48 1.47 1.45 1.40 1.35 1.36 1.43 1.38 1.31 1.27 1.24 1.23 1.23 1.20 1.20 1.16 1.18 1.21 1.21 1.33 1.49 1.65 1.90 1.94 1.76 1.62 1.66 1.73 1.68 1.73 1.89 1.91
0.90 1.02 1.13 1.22 1.31 1.37 1.36 1.34 1.33 1.31 1.25 1.25 1.28 1.28 1.23 1.16 1.10 1.05 1.04 0.97 0.96 1.01 1.10 1.19 1.18 1.10 1.13 1.30 1.56 1.70 1.68 1.66 1.60 1.57 1.52 1.64 1.66 1.55
0.89 0.95 0.98 1.00 1.08 1.17 1.16 1.12 1.14 1.13 1.10 1.12 1.11 1.13 1.16 1.11 1.02 0.96 0.92 0.91 0.95 0.95 0.97 0.99 0.95 0.97 1.08 1.29 1.47 1.55 1.51 1.41 1.40 1.36 1.33 1.33 1.32 1.44
0.80 0.82 0.85 0.86 0.85 0.88 0.94 0.95 1.00 1.07 1.10 1.09 1.06 1.05 1.02 0.98 0.92 0.88 0.88 0.86 0.83 0.82 0.88 0.95 0.96 1.00 1.08 1.19 1.33 1.36 1.28 1.22 1.21 1.23 1.29 1.31 1.22 1.26